Theta_e
300 300 300 300 300 300 300 300 300 300 300 300 301 301 301 301 301 302 304 306 308 310 311 310 313 317 322 327 327 327 321 321 324 323 323 323 324 326 326 328 328 330 330 331 331
300 300 300 300 300 300 300 300 300 300 300 300 300 300 301 301 301 303 304 305 306 308 308 308 311 318 320 323 328 326 322 321 322 323 322 325 326 326 325 325 326 328 330 330 331
300 300 300 300 300 300 300 300 300 300 300 301 301 300 300 300 301 303 310 311 310 308 308 307 312 313 318 318 325 328 329 325 324 324 324 326 327 328 326 326 326 328 328 328 329
299 299 300 300 300 299 299 299 299 300 301 301 300 300 300 300 299 308 310 311 309 306 307 307 310 317 318 325 324 328 328 328 326 326 329 329 328 328 329 328 329 329 328 328 328
300 300 300 300 300 300 300 300 302 304 305 306 305 302 300 300 302 303 302 302 303 303 306 314 309 314 312 315 324 325 325 328 329 330 330 330 329 329 329 329 328 327 326 325 326
300 300 300 300 300 300 300 301 302 303 305 306 306 305 303 303 304 304 305 304 304 304 304 309 312 312 313 313 319 317 322 325 324 324 325 324 325 325 326 327 325 325 325 325 326
300 300 300 300 301 301 300 301 301 302 303 304 306 307 306 305 305 308 309 309 309 308 304 306 311 313 313 312 315 314 315 314 315 317 318 322 323 324 325 325 324 324 325 325 326
300 300 301 301 301 301 301 302 303 305 307 307 307 306 307 305 306 308 308 307 308 308 306 303 309 312 311 313 314 315 314 317 318 315 317 321 323 323 325 324 324 325 325 325 326
300 300 301 301 302 302 303 303 304 305 306 307 305 308 306 305 307 308 308 307 308 307 306 304 309 310 311 311 311 312 317 316 317 318 319 319 322 322 324 323 323 324 324 324 324
300 301 301 301 302 303 303 303 304 305 306 306 306 307 305 307 308 308 308 307 307 308 307 307 308 306 307 310 314 313 315 316 317 318 318 319 320 320 322 322 321 322 322 323 323
300 301 301 301 303 303 304 303 306 305 305 304 305 304 305 307 307 308 307 307 306 306 305 306 305 308 310 311 313 313 314 316 317 317 320 319 320 320 320 321 320 321 322 322 323
301 301 301 301 303 304 305 306 306 305 304 305 305 305 307 307 308 307 307 306 305 304 304 305 305 307 309 310 311 311 311 312 313 314 315 315 314 313 315 316 319 320 321 321 322
301 301 301 301 303 305 305 306 307 307 304 305 305 306 308 308 308 307 307 306 305 304 304 303 306 308 308 309 310 309 310 312 313 313 313 313 315 315 315 314 316 316 317 317 318
301 302 301 301 305 306 307 307 307 306 301 303 307 308 307 307 308 309 309 306 305 305 304 302 303 306 306 307 308 308 310 312 312 313 313 313 316 314 314 314 314 314 315 315 315
301 303 303 301 305 308 308 307 307 306 303 306 306 306 306 307 308 309 309 310 305 304 303 303 304 304 305 306 307 307 309 310 311 311 311 312 311 312 312 312 313 313 314 314 315
305 305 303 305 308 308 308 307 306 302 303 307 307 306 306 307 308 309 309 309 307 305 305 303 304 304 305 306 307 308 307 307 309 309 311 310 311 313 312 312 312 312 313 314 315
306 306 308 308 309 308 307 307 301 303 306 307 307 306 306 307 307 308 309 310 311 306 305 305 305 305 305 305 305 305 304 307 309 310 310 311 311 312 312 312 312 313 314 315 316
308 309 309 309 308 307 307 300 304 307 307 306 306 306 306 306 307 308 309 310 311 311 312 309 311 306 306 305 305 302 302 307 311 312 309 311 313 313 312 313 313 314 315 315 316
307 309 309 308 307 308 306 300 306 307 306 306 306 307 306 307 307 306 307 311 311 310 313 313 312 310 309 307 306 306 303 303 304 306 306 310 311 312 312 313 313 313 314 316 317
306 309 309 308 308 308 302 306 306 306 306 306 308 307 307 306 306 306 307 310 310 310 308 308 309 309 310 309 307 306 305 305 301 307 310 310 311 313 312 312 312 313 312 315 317
306 309 309 309 308 307 300 303 305 306 306 308 308 308 307 306 306 307 308 309 310 309 309 308 308 308 308 307 305 307 306 308 303 304 309 311 310 309 312 312 313 311 312 315 323
305 305 308 306 305 300 299 305 306 306 306 307 307 307 307 306 307 307 309 309 308 308 309 308 308 310 309 306 307 306 308 309 309 309 306 307 307 309 310 309 309 310 314 317 327
304 306 308 306 298 296 301 304 305 306 306 307 307 306 306 306 307 306 308 308 307 309 309 309 307 309 307 310 309 310 310 307 310 311 312 309 308 309 309 310 310 312 315 320 330
303 302 305 304 303 302 304 304 306 306 307 307 306 305 307 306 305 306 307 307 307 308 309 309 308 307 306 308 309 309 309 309 311 312 312 312 312 311 312 312 311 313 314 322 325
300 300 303 298 299 299 303 304 306 307 307 306 306 306 308 308 307 306 306 307 307 307 308 309 311 310 310 309 310 310 310 310 311 311 314 313 312 312 312 312 312 313 314 322 328
304 301 301 300 301 303 304 305 307 307 307 306 307 308 308 308 306 307 306 307 308 307 308 308 310 308 309 308 308 311 311 311 311 311 311 312 313 311 312 312 312 314 315 326 329
302 301 299 300 299 300 300 305 305 304 306 306 307 307 307 306 306 306 306 306 307 309 308 310 309 310 307 308 309 308 310 309 310 310 311 311 311 310 311 312 314 315 317 322 330
Wind_Speed
15 15 15 15 15 16 16 16 16 17 17 18 19 20 21 22 22 25 29 26 23 21 21 20 11 14 13 11 13 7 3 5 7 7 4 2 5 5 6 6 8 4 6 10 5
15 15 15 15 15 16 16 17 17 18 18 20 21 23 24 25 26 27 19 21 25 26 25 19 22 15 11 12 10 6 5 10 6 11 5 7 3 4 7 11 5 12 4 3 6
15 16 17 17 17 17 18 18 17 17 18 20 21 23 24 24 25 4 3 2 3 8 23 25 20 22 15 13 13 9 10 13 10 18 13 13 16 5 2 7 10 3 13 22 11
17 18 18 18 19 19 19 20 20 20 20 20 21 22 23 20 6 4 6 8 15 16 12 24 23 11 9 11 16 6 18 22 10 15 9 13 22 5 13 21 26 28 27 27 28
18 19 19 18 19 19 17 18 18 21 23 24 22 20 18 11 19 16 18 25 23 18 13 11 22 18 9 7 10 13 5 16 26 21 21 22 18 19 24 28 34 30 30 29 30
20 20 20 21 21 18 15 14 16 19 21 24 24 20 11 6 12 26 26 20 21 20 13 11 12 21 8 7 18 4 16 23 17 11 12 8 18 14 20 30 29 33 37 35 33
21 21 22 24 23 20 17 16 17 20 21 20 19 13 12 27 24 20 11 15 17 22 26 18 17 13 7 2 24 5 5 3 7 4 7 10 23 21 24 31 32 32 39 37 35
23 23 24 27 25 23 19 18 19 19 12 15 18 12 13 21 17 8 20 29 24 22 22 21 11 23 11 4 1 6 3 13 13 8 7 11 28 18 24 20 29 33 38 35 34
25 24 23 25 26 25 21 21 19 21 19 16 20 10 14 20 22 22 24 23 24 25 15 15 15 14 5 4 2 4 15 14 12 8 11 15 25 7 20 18 24 29 34 36 37
26 25 23 22 23 20 18 20 15 12 14 17 8 7 9 19 21 25 16 12 15 21 14 14 11 6 4 6 16 10 12 8 7 7 10 12 27 15 15 13 20 25 32 36 40
27 25 21 17 18 14 17 21 18 3 15 10 16 18 27 21 26 21 15 7 9 6 4 7 5 16 30 26 8 3 11 2 3 5 8 19 22 16 12 21 23 29 35 41 45
26 25 21 15 14 9 14 8 7 11 13 15 17 20 23 23 17 26 12 4 6 2 6 5 15 10 2 5 5 2 3 1 4 4 2 6 11 9 6 11 21 27 31 33 42
26 24 19 12 7 8 9 9 12 13 4 13 10 14 16 14 14 23 9 5 5 7 5 6 7 8 8 5 8 5 5 3 2 7 6 5 14 10 7 16 26 33 33 35 37
27 23 19 12 4 12 7 14 16 5 2 5 4 5 16 24 6 8 16 7 4 9 5 6 6 4 2 6 6 5 7 5 5 5 6 2 12 13 9 15 13 25 32 34 31
28 23 19 10 6 11 15 16 9 1 4 11 3 12 29 9 20 15 21 7 8 4 5 7 1 4 5 5 7 7 2 4 2 3 3 2 4 6 5 11 17 19 33 36 37
27 20 9 1 6 11 16 19 4 4 5 6 10 14 15 11 15 3 17 6 6 4 2 5 1 2 5 4 7 4 6 2 3 3 4 6 6 18 9 16 13 14 26 31 33
21 10 9 5 8 15 18 2 4 3 5 7 9 12 15 8 9 11 4 7 3 0 2 1 6 4 4 2 1 2 5 2 2 3 11 13 9 21 5 3 3 6 9 13 16
13 7 8 9 11 15 15 4 4 2 2 6 8 18 4 7 9 10 9 9 10 8 4 5 3 5 4 8 6 6 7 5 6 4 4 8 11 9 14 25 33 26 20 18 17
10 4 8 9 10 13 7 5 2 1 5 7 14 4 4 3 3 7 5 5 6 3 3 5 3 5 6 2 8 4 4 5 3 2 1 4 7 11 14 19 11 5 13 21 22
12 3 5 9 10 11 5 1 2 2 6 5 4 3 4 6 6 5 4 3 5 4 2 4 3 4 4 3 4 4 5 3 2 4 4 5 6 8 8 8 14 8 9 27 34
10 1 5 7 11 5 3 4 4 10 9 3 3 4 5 5 3 3 4 3 3 7 5 5 3 6 2 3 3 3 2 2 4 5 4 2 5 7 14 2 5 6 13 29 32
8 2 7 9 4 2 1 2 6 6 6 6 3 5 4 5 4 3 3 2 1 3 5 3 1 3 6 6 3 1 3 1 4 7 7 3 7 2 6 5 5 8 25 33 25
9 5 6 6 2 3 5 4 5 3 5 4 4 4 2 3 5 4 5 6 10 2 2 1 2 2 6 1 3 2 2 4 1 0 7 7 7 3 7 13 12 15 30 32 20
8 4 5 6 3 2 5 4 4 8 6 6 5 6 5 4 6 6 8 8 9 6 17 5 3 5 5 2 2 2 6 7 4 4 7 20 15 19 21 20 15 25 31 29 24
9 2 3 4 3 5 4 4 6 7 3 6 4 2 8 6 12 11 10 4 10 13 5 4 5 6 10 13 11 9 12 12 13 13 9 17 15 7 18 16 16 22 28 26 24
7 6 5 8 13 5 3 3 6 10 5 6 5 14 13 8 12 21 19 14 6 6 4 3 3 2 10 12 11 13 14 15 18 19 21 19 21 10 23 27 18 22 23 25 26
9 5 3 5 5 3 3 4 10 15 10 13 15 16 13 15 17 27 28 29 11 4 2 3 2 1 5 5 7 8 18 17 20 21 17 21 11 8 15 16 15 24 24 29 33
Wind_Direction
11 10 5 360 355 349 344 341 337 333 329 325 321 318 315 310 303 296 285 280 269 256 251 246 265 208 204 212 204 188 140 224 200 184 240 250 28 310 309 285 315 333 37 14 46
8 5 2 357 353 347 342 339 336 331 327 324 323 320 318 319 316 306 289 269 259 251 238 240 242 225 203 216 204 177 185 222 178 222 238 276 267 312 324 323 252 291 253 315 339
2 358 355 351 347 344 340 337 335 329 324 320 318 317 317 324 324 307 345 127 151 279 241 228 225 224 206 202 197 198 221 230 220 217 243 269 288 214 264 297 259 292 306 314 300
355 353 351 348 345 343 341 339 338 333 328 323 316 313 315 323 310 349 262 281 291 307 312 235 219 206 185 204 206 217 223 229 231 220 232 254 265 235 217 257 277 288 297 297 288
351 347 346 344 342 340 339 337 338 333 332 332 325 314 315 303 279 320 287 280 281 295 288 269 222 216 191 190 206 236 219 233 241 247 256 266 262 267 269 271 282 288 287 284 285
349 345 343 341 338 335 339 338 339 329 327 328 327 321 319 269 308 311 299 279 281 286 265 257 222 226 277 216 198 183 224 249 261 248 253 265 270 257 281 279 284 287 284 283 283
349 347 345 344 341 339 339 339 339 328 325 324 318 314 285 281 312 329 340 357 317 292 270 243 238 236 261 246 233 258 294 319 228 196 248 252 277 257 257 272 281 279 275 278 282
350 350 348 346 342 345 344 345 344 338 347 339 332 320 278 320 322 335 320 320 328 329 267 246 236 236 246 244 223 185 162 245 240 161 241 168 258 254 260 256 257 270 277 279 276
350 348 347 346 343 345 346 344 343 328 314 311 320 311 274 319 323 323 325 313 312 326 281 233 226 211 187 177 45 235 234 220 246 210 204 193 257 242 242 249 257 264 271 277 281
349 345 345 345 339 338 341 333 327 305 286 298 286 292 274 306 327 322 325 322 294 307 301 232 222 173 153 164 210 207 221 230 209 204 201 237 256 255 260 255 258 266 274 277 278
348 345 342 343 334 336 342 349 10 333 304 258 275 271 281 306 316 319 332 280 267 301 244 247 195 205 205 211 204 60 213 138 149 261 186 225 256 257 252 262 268 271 271 273 276
347 342 342 343 333 334 347 30 7 309 301 288 275 275 294 301 296 322 326 226 159 171 301 257 232 223 161 192 203 117 112 208 285 255 184 283 276 277 243 256 253 256 260 262 273
343 336 339 343 342 352 359 3 335 322 257 292 281 286 314 302 280 307 321 258 219 158 225 243 274 183 199 174 205 222 206 177 191 323 281 294 286 267 242 235 251 260 262 268 268
340 335 334 336 315 336 351 349 333 294 19 275 305 333 329 327 296 354 335 237 243 197 199 230 260 160 26 221 154 189 172 169 195 175 247 110 282 265 264 263 254 260 263 263 266
338 329 326 321 319 331 330 336 329 151 341 318 359 335 332 327 317 322 343 234 237 224 136 239 278 180 173 188 189 222 146 164 186 249 294 205 296 287 217 259 255 254 257 258 253
341 336 347 54 357 335 329 331 141 53 262 335 333 336 335 316 328 304 340 285 220 240 239 229 307 198 172 193 191 158 141 118 85 123 260 175 182 275 251 251 252 249 262 261 265
351 21 52 45 353 346 337 39 43 123 338 334 316 329 318 309 314 337 0 351 18 52 264 346 252 218 155 228 43 91 78 96 124 192 233 161 179 240 306 183 239 246 303 299 279
358 47 47 26 2 352 343 66 74 359 280 316 316 313 298 347 318 329 8 358 27 348 338 176 258 179 192 184 189 173 166 167 173 201 216 151 222 241 235 254 262 273 293 311 310
1 63 46 21 359 357 352 56 218 359 314 305 311 301 306 324 319 354 325 7 38 119 314 351 306 332 53 49 151 183 161 195 44 277 111 217 287 293 276 282 269 303 325 314 320
354 127 33 7 349 346 59 294 251 301 297 285 285 310 305 318 345 352 305 349 350 3 193 315 275 114 317 1 260 166 172 119 356 219 240 260 259 236 318 264 275 353 325 337 335
356 97 5 340 335 19 108 256 287 278 307 301 283 286 286 311 286 284 281 310 343 335 1 15 60 306 3 200 211 35 287 166 164 177 212 295 264 220 224 172 16 299 327 339 335
358 39 10 338 33 48 14 264 289 284 320 267 237 240 254 305 291 282 275 263 23 12 339 351 77 269 258 266 334 92 267 268 178 241 248 138 270 357 107 85 33 354 343 344 341
357 316 352 1 71 327 308 289 272 302 316 298 283 267 333 284 309 281 284 336 313 201 297 282 276 308 319 22 64 115 249 228 260 42 237 235 239 239 324 336 356 347 336 346 330
357 351 345 43 69 67 325 300 299 299 276 321 276 277 344 268 225 270 282 309 347 308 277 237 232 213 205 311 118 269 292 289 215 229 263 243 267 292 303 309 333 331 320 332 331
9 22 7 306 328 325 268 287 286 327 247 300 295 288 310 289 302 273 259 259 287 278 295 183 258 234 256 267 279 261 266 264 260 255 250 269 268 283 296 307 306 304 304 316 326
10 358 331 299 296 268 283 248 280 321 309 291 254 296 297 266 265 283 284 279 236 301 191 199 243 260 288 262 257 264 262 258 254 256 259 261 268 268 274 286 289 293 292 304 315
358 330 277 267 294 331 253 289 314 314 280 270 291 300 296 284 279 276 271 266 247 212 199 207 247 313 265 298 341 286 241 242 244 238 240 240 242 263 265 275 275 275 285 297 308